Seward, AK

9:30 AM AKST on December 12, 2017 (GMT -0900)
Seward

Weather History for PAWD - October, 2010

Change the Weather History Date:

Friday, October 22, 2010

  Actual Average Record
Temperature  
Mean Temperature 40 °F -  
Max Temperature 44 °F 42 °F 58 °F (1957)
Min Temperature 37 °F 32 °F 16 °F (1958)
Degree Days  
Heating Degree Days 24    
Moisture  
Dew Point 38 °F    
Average Humidity 92    
Maximum Humidity 100    
Minimum Humidity 82    
Precipitation  
Precipitation 0.24 in - - ()
Sea Level Pressure  
Sea Level Pressure 29.58 in    
Wind  
Wind Speed 1 mph (North)    
Max Wind Speed 7 mph    
Max Gust Speed -    
Visibility 10 miles    
Events Rain    
Averages and records for this station are not official NWS values.
T = Trace of Precipitation, MM = Missing Value Source: NWS Daily Summary

Daily Weather History Graph

Daily Weather History Graph

Search for Another Location

Airport or City:

Trip Planner

Search our weather history database for the weather conditions in past years. The results will help you decide how hot, cold, wet, or windy it might be!

Date:

Astronomy

Oct. 22, 2010 Rise Set
Actual Time 8:55 AM AKDT 6:27 PM AKDT
Civil Twilight 8:11 AM AKDT 7:11 PM AKDT
Nautical Twilight 7:23 AM AKDT 7:59 PM AKDT
Astronomical Twilight 6:34 AM AKDT 8:47 PM AKDT
Moon 5:39 PM AKDT (10/22) 9:02 AM AKDT (10/22)
Length of Visible Light 10h 59m
Length of Day
9h 32m
Full, 100% of the Moon is Illuminated
Oct 22
Full
Oct 22
Full
Oct 30
Last Quarter
Nov 5
New
Nov 13
First Quarter

Hourly Weather History & Observations

Time (AKDT) Temp. Windchill Dew Point Humidity Pressure Visibility Wind Dir Wind Speed Gust Speed Precip Events Conditions
12:03 AM 39.2 °F - 39.2 °F 100% 29.68 in 6.0 mi Calm Calm - 0.01 in Rain Light Rain
12:53 AM 39.9 °F - 37.9 °F 93% 29.67 in 6.0 mi Calm Calm - 0.07 in Rain Light Rain
1:44 AM 39.2 °F 35.9 °F 37.4 °F 93% 29.66 in 10.0 mi North 4.6 mph - 0.05 in Rain Light Rain
1:53 AM 39.9 °F - 37.9 °F 93% 29.66 in 10.0 mi Calm Calm - 0.05 in Rain Light Rain
2:53 AM 39.9 °F - 37.9 °F 93% 29.66 in 9.0 mi Calm Calm - 0.02 in Rain Light Rain
3:07 AM 39.2 °F - 37.4 °F 93% 29.66 in 8.0 mi Calm Calm - 0.02 in Rain Light Rain
3:16 AM 39.2 °F - 37.4 °F 93% 29.66 in 9.0 mi Calm Calm - 0.02 in Rain Light Rain
3:53 AM 39.0 °F - 37.0 °F 93% 29.66 in 6.0 mi Calm Calm - 0.05 in Rain Light Rain
4:06 AM 39.2 °F - 37.4 °F 93% 29.65 in 10.0 mi Calm Calm - 0.00 in Rain Light Rain
4:26 AM 39.2 °F 37.0 °F 37.4 °F 93% 29.65 in 10.0 mi North 3.5 mph - 0.01 in Rain Light Rain
4:53 AM 39.0 °F 36.8 °F 37.0 °F 93% 29.64 in 10.0 mi North 3.5 mph - 0.01 in Rain Light Rain
5:13 AM 39.2 °F 37.0 °F 37.4 °F 93% 29.64 in 10.0 mi NNW 3.5 mph - 0.00 in Rain Light Rain
5:53 AM 39.0 °F - 37.0 °F 93% 29.63 in 10.0 mi Calm Calm - 0.01 in Rain Light Rain
6:53 AM 37.9 °F - 37.0 °F 97% 29.62 in 10.0 mi Calm Calm - 0.01 in Rain Light Rain
7:53 AM 39.0 °F - 37.0 °F 93% 29.61 in 10.0 mi Calm Calm - 0.00 in Rain Light Rain
8:53 AM 37.9 °F 35.5 °F 36.0 °F 93% 29.60 in 10.0 mi North 3.5 mph - 0.00 in   Overcast
9:53 AM 39.0 °F - 37.0 °F 93% 29.59 in 10.0 mi Calm Calm - N/A   Overcast
10:53 AM 41.0 °F 39.0 °F 37.9 °F 89% 29.58 in 10.0 mi NNW 3.5 mph - N/A   Overcast
11:53 AM 43.0 °F - 39.0 °F 86% 29.57 in 10.0 mi Calm Calm - N/A   Overcast
12:53 PM 44.1 °F - 39.9 °F 85% 29.55 in 10.0 mi Calm Calm - N/A   Mostly Cloudy
1:53 PM 43.0 °F 40.3 °F 37.9 °F 82% 29.54 in 10.0 mi South 4.6 mph - N/A   Mostly Cloudy
2:53 PM 43.0 °F 41.3 °F 39.9 °F 89% 29.52 in 10.0 mi SSW 3.5 mph - N/A   Overcast
3:53 PM 43.0 °F - 39.9 °F 89% 29.51 in 10.0 mi Calm Calm - 0.00 in   Overcast
4:53 PM 44.1 °F - 39.9 °F 85% 29.49 in 10.0 mi Calm Calm - N/A   Overcast
6:53 PM 43.0 °F 38.8 °F 39.0 °F 86% 29.49 in 10.0 mi SSE 6.9 mph - 0.00 in Rain Light Rain
7:11 PM 42.8 °F - 39.2 °F 87% 29.49 in 10.0 mi Calm Calm - 0.01 in Rain Light Rain
7:53 PM 42.1 °F - 37.9 °F 85% 29.49 in 10.0 mi Calm Calm - 0.01 in   Overcast
8:53 PM 41.0 °F - 39.0 °F 93% 29.49 in 10.0 mi Calm Calm - 0.00 in Rain Light Rain
9:53 PM 39.9 °F - 37.9 °F 93% 29.49 in 10.0 mi Calm Calm - 0.00 in Rain Light Rain
10:05 PM 39.2 °F - 39.2 °F 100% 29.49 in 10.0 mi Calm Calm - 0.00 in Rain Light Rain
10:21 PM 39.2 °F - 37.4 °F 93% 29.49 in 10.0 mi Calm Calm - 0.00 in   Overcast
10:53 PM 39.9 °F - 37.9 °F 93% 29.49 in 10.0 mi Calm Calm - 0.00 in   Overcast
11:53 PM 39.9 °F 36.7 °F 37.9 °F 93% 29.49 in 10.0 mi NNE 4.6 mph - 0.01 in Rain Light Rain